Location: G�rlitz
(51.1670°N, 15.0000°E)
Time: 20:53:57
(UTC+01:00)

Envisat - Pass Details

Date: 21 February 2026
Orbit: 761 x 763 km, 98.4° (Epoch: 11 March)

Event Time Altitude Azimuth Distance (km) Brightness Sun altitude
Rises 02:42:53 0° 16° (NNE) 3,237 6.9 -39.3°
Reaches altitude 10° 02:45:12 10° 18° (NNE) 2,307 6.0 -39.0°
Enters shadow 02:46:25 18° 20° (NNE) 1,833 5.4 -38.9°
